Vertical_Velocity
0 0 0 -0 -1 0 1 -2 -4 -4 -1 -3 -4 -4 -4 -1 2 0 0 1 0 -2 -1 -1 -1 -1 -2 -0 -2 -7 -6 -3 -1 -1 0 2 2 -0 -4 -3 -3 0 1 1
1 -0 -0 0 -0 0 0 -0 1 1 -5 -3 1 3 1 -1 -0 -0 0 0 -0 -0 1 3 -1 -2 -2 -3 -2 -0 0 -2 -1 1 1 0 -2 -5 -2 -1 1 -1 -2 -1
-2 0 -1 -5 -6 -2 -1 0 -4 -1 -9 -0 2 1 -3 -1 -2 -2 -1 -0 1 -0 -4 -2 -1 -1 -3 -2 -1 -2 -2 0 0 -1 -0 -1 -1 -2 -3 -1 -1 -2 -3 -2
-1 -2 -4 -12 -0 -1 -1 -2 0 1 -0 -2 -1 -1 -0 1 -3 -2 -1 -2 -0 1 2 -1 -2 -6 -2 1 -1 -2 -0 -0 1 -0 -1 1 1 -1 -0 -1 -0 0 1 0
-2 -0 -7 -2 -1 -2 -4 -7 -3 -2 1 1 0 1 -1 -2 -1 1 0 1 -0 2 2 -1 -3 -0 1 -2 -1 -0 0 -1 -2 -1 -0 0 1 -1 0 -1 -1 2 0 1
0 -1 -2 -7 -1 0 -0 -7 -0 -1 -1 -2 0 2 -5 -4 3 2 2 1 1 0 -2 -0 -1 -1 -2 -1 -1 -1 -2 -2 -0 -0 -0 1 -0 -0 1 -4 -2 -2 -0 1
0 -1 -8 -4 -1 0 -6 -15 -1 -2 -3 -3 -2 -7 -2 -2 -0 1 2 1 2 1 1 -1 -2 -2 -1 -2 -1 -1 -0 -1 -0 0 1 0 -1 -2 -3 -1 1 4 3 -0
0 0 -7 -2 1 -3 -7 -1 0 0 -1 -3 2 1 1 4 3 2 -1 -2 -1 1 -1 -1 -2 -3 -1 -1 -1 -1 -0 2 1 -0 -2 -2 -1 -2 -4 -1 3 2 0 -1
-7 -10 -2 -4 -1 -0 -1 0 0 -0 3 2 4 2 0 -1 -1 -0 -0 0 -3 -2 -1 -1 -1 -1 -1 -0 -1 1 0 -0 -1 -3 -1 -2 -2 -1 -2 -1 1 1 -0 -1
-1 -2 -3 -3 -1 1 1 -0 1 -1 1 3 2 2 2 3 1 -5 -1 -3 -1 -2 -0 -0 -1 -1 -1 -0 1 -0 -0 -1 -2 -2 -1 -2 -1 -2 -0 0 -0 0 -1 -1
-3 -4 -2 -1 -2 2 2 2 1 1 3 2 3 5 4 -0 -4 2 -1 -3 0 1 0 -0 -1 -0 1 0 -1 -1 -2 -1 -1 0 -2 -1 -1 -1 1 -1 -1 2 1 -0
-7 -0 -0 -0 1 1 2 3 2 4 2 4 5 -0 -4 -8 3 -6 -0 3 0 -0 -1 -1 -1 -1 -1 -1 -3 -1 -1 -1 -1 -0 1 -0 -0 -1 1 -3 -0 -1 0 0
0 1 1 1 1 0 1 1 1 -1 3 -2 3 -6 -2 3 -8 4 2 0 -1 -1 -1 -2 -1 -1 -1 -0 -0 -1 -2 -1 -0 -1 0 0 1 0 -2 -2 -0 0 -2 -0
0 -0 1 0 1 1 3 4 7 3 4 -4 -8 -7 -6 2 1 1 -1 -2 -2 -1 -1 -2 -1 -1 -3 -1 -1 -3 -1 0 -1 -0 1 0 0 1 2 -1 -3 -1 2 -1
0 -0 0 1 2 1 4 6 2 -2 -3 -9 -5 -4 1 2 -1 -1 -1 -1 -1 -1 0 0 -1 -2 -1 0 -1 -2 -1 -2 -0 0 0 0 1 -0 0 -1 -2 -1 -2 -1
1 2 3 -1 2 3 2 -0 -10 -10 -6 -3 3 1 -1 -1 -1 -2 -1 -1 -0 1 1 -2 -3 -3 -1 -2 1 -0 -2 -1 -1 -0 -1 -0 0 -0 -0 -0 -1 -1 -1 -2
-3 0 3 0 -2 -4 -10 -4 -1 -0 0 0 2 1 -1 -1 -1 -0 1 1 -2 -2 -3 -2 -4 0 -0 0 1 -1 -0 -2 0 0 -0 -1 -2 -1 0 -0 -1 -1 -2 -1
-1 -4 -2 -7 -9 -5 -0 2 2 3 2 1 -1 -1 -0 0 0 -0 1 -0 -2 -1 -1 2 -0 -0 2 3 1 1 1 1 1 3 4 -0 -0 0 -1 -0 -0 -2 -2 -1
-2 -5 -2 0 2 2 2 2 1 0 -0 -1 -1 -0 -0 -1 -0 -1 1 -1 -3 -2 3 -1 0 -1 -1 -0 0 1 2 2 0 -1 1 1 1 -1 -1 -0 -1 -2 0 -1
0 1 2 2 2 2 1 -0 -0 0 0 -1 -2 -2 -0 0 2 -1 3 -2 2 3 -1 -0 0 0 0 -0 -1 -2 -1 1 2 -1 -1 2 3 2 3 0 2 1 1 -0
3 2 2 2 1 1 1 1 -1 -1 -1 1 0 -0 -2 0 2 4 0 -4 -1 7 -1 -1 -0 -1 -0 -2 -3 -2 -0 -2 -0 0 2 2 1 0 -0 2 2 3 3 2
-0 -1 -1 0 1 2 2 1 1 1 1 1 2 1 -3 -4 1 -4 6 0 3 11 -0 1 -3 -1 -3 -2 -2 -2 -1 -0 1 2 1 1 2 1 1 2 2 2 1 1
0 0 1 1 1 1 2 2 1 0 -0 -2 -0 0 1 -2 6 -2 -15 12 -1 2 4 0 -1 -4 -2 0 -0 -1 0 1 -0 -1 0 2 2 -0 1 1 2 2 0 1
0 -1 -0 1 2 3 -3 -5 -3 -2 0 1 2 3 -2 -17 -14 14 3 1 1 10 10 1 -3 -1 1 0 0 -0 0 0 0 1 0 2 2 -0 4 -0 -1 -1 1 1
2 2 2 0 -3 -5 -3 -3 -3 -6 -7 -5 -6 -2 2 8 4 -14 0 4 1 3 12 6 1 0 -0 -1 0 1 -0 -0 0 -1 -1 -0 0 0 1 -0 1 1 -0 4
1 -2 -3 -3 -2 -2 -3 -4 -4 -5 -6 -5 4 -4 -1 -0 0 -1 1 1 0 2 10 6 3 3 1 0 -1 -1 0 0 1 0 -1 -1 0 0 -0 0 0 1 1 1
-2 -0 -0 -0 -1 -1 -1 -2 -3 -2 -1 -4 -6 0 -3 -3 -1 -0 1 -1 1 9 12 6 2 2 1 1 0 0 0 -0 -1 -0 -0 -1 -0 0 -0 -1 -1 1 3 3
Height
1523 1524 1521 1519 1520 1524 1523 1522 1523 1518 1520 1515 1515 1519 1523 1527 1530 1533 1536 1539 1540 1541 1543 1545 1545 1546 1547 1546 1545 1544 1541 1539 1536 1534 1531 1528 1524 1519 1515 1511 1506 1502 1499 1496
1523 1526 1526 1521 1519 1521 1522 1521 1519 1520 1515 1511 1513 1516 1522 1525 1528 1531 1533 1535 1537 1539 1541 1541 1542 1543 1544 1543 1541 1539 1536 1534 1531 1529 1526 1522 1518 1514 1510 1506 1501 1498 1496 1494
1525 1531 1528 1526 1511 1510 1511 1510 1507 1513 1502 1509 1513 1514 1516 1520 1524 1527 1530 1532 1534 1535 1537 1538 1539 1539 1540 1539 1536 1534 1532 1529 1526 1523 1520 1516 1513 1509 1505 1502 1498 1495 1492 1491
1528 1537 1528 1501 1502 1504 1504 1503 1503 1503 1504 1505 1507 1509 1513 1517 1520 1524 1526 1528 1530 1531 1532 1534 1535 1536 1535 1533 1531 1529 1526 1523 1520 1516 1513 1510 1507 1503 1500 1496 1493 1491 1490 1488
1527 1527 1515 1497 1502 1503 1503 1495 1494 1497 1502 1505 1507 1510 1513 1514 1517 1520 1522 1524 1527 1529 1531 1531 1532 1532 1531 1529 1526 1524 1521 1518 1514 1510 1507 1504 1501 1497 1494 1490 1488 1486 1485 1484
1539 1525 1522 1500 1498 1498 1499 1501 1491 1494 1499 1503 1507 1510 1504 1508 1512 1516 1519 1522 1524 1526 1528 1528 1528 1527 1525 1523 1521 1519 1515 1512 1508 1504 1501 1498 1495 1492 1488 1485 1483 1482 1481 1480
1543 1523 1513 1497 1498 1499 1506 1500 1490 1492 1495 1499 1502 1500 1501 1503 1509 1514 1518 1520 1522 1524 1525 1525 1524 1522 1521 1519 1517 1513 1510 1506 1503 1499 1496 1492 1489 1486 1483 1481 1480 1479 1478 1477
1540 1529 1514 1495 1498 1501 1493 1490 1490 1490 1491 1492 1494 1498 1501 1504 1508 1511 1515 1520 1522 1523 1522 1521 1519 1518 1517 1514 1511 1508 1504 1500 1497 1494 1489 1486 1484 1481 1479 1478 1476 1476 1475 1474
1508 1500 1492 1492 1490 1489 1490 1490 1490 1491 1491 1492 1494 1496 1500 1503 1507 1512 1514 1517 1519 1520 1519 1517 1515 1513 1511 1509 1506 1502 1498 1495 1491 1488 1484 1482 1480 1478 1476 1475 1474 1473 1471 1470
1502 1489 1489 1489 1489 1488 1489 1489 1489 1489 1489 1490 1493 1497 1499 1503 1507 1510 1514 1517 1517 1516 1514 1513 1511 1509 1506 1503 1500 1496 1492 1489 1487 1483 1481 1478 1476 1475 1473 1472 1471 1469 1467 1466
1496 1487 1487 1485 1485 1486 1485 1485 1486 1486 1487 1488 1492 1496 1500 1503 1506 1511 1513 1514 1512 1511 1509 1508 1506 1504 1501 1498 1494 1491 1487 1484 1482 1479 1477 1476 1473 1472 1470 1468 1466 1464 1463 1461
1490 1485 1485 1484 1484 1483 1483 1483 1485 1486 1488 1491 1494 1496 1501 1505 1509 1511 1510 1510 1509 1507 1506 1504 1502 1499 1496 1492 1489 1486 1483 1480 1478 1476 1473 1471 1470 1468 1466 1463 1461 1460 1458 1457
1484 1483 1484 1483 1482 1482 1482 1483 1485 1488 1491 1492 1496 1499 1503 1507 1509 1508 1508 1507 1506 1504 1502 1500 1497 1494 1490 1487 1484 1481 1479 1476 1473 1471 1469 1467 1466 1463 1461 1459 1457 1455 1454 1453
1482 1482 1482 1482 1482 1482 1484 1486 1487 1489 1493 1495 1498 1502 1505 1505 1505 1505 1504 1503 1502 1500 1498 1495 1492 1489 1486 1482 1479 1476 1474 1472 1469 1467 1465 1463 1460 1458 1457 1454 1452 1450 1449 1447
1482 1481 1482 1482 1484 1485 1487 1489 1490 1494 1496 1499 1501 1502 1502 1502 1502 1501 1500 1499 1497 1495 1493 1491 1488 1485 1481 1477 1473 1471 1468 1466 1464 1461 1459 1457 1455 1453 1451 1449 1447 1445 1443 1442
1483 1483 1484 1484 1487 1490 1491 1493 1495 1497 1498 1499 1499 1500 1500 1499 1498 1497 1496 1494 1493 1491 1489 1486 1483 1480 1476 1472 1468 1465 1463 1460 1458 1455 1453 1451 1449 1447 1445 1443 1441 1439 1438 1437
1482 1486 1487 1488 1491 1493 1495 1496 1497 1497 1497 1498 1498 1498 1497 1496 1494 1493 1491 1490 1488 1486 1484 1480 1477 1474 1469 1466 1462 1459 1457 1454 1452 1449 1446 1445 1443 1441 1439 1437 1435 1433 1432 1431
1483 1486 1489 1492 1494 1495 1496 1496 1497 1497 1497 1497 1496 1495 1494 1492 1490 1488 1487 1485 1483 1480 1479 1475 1471 1467 1462 1459 1455 1452 1450 1447 1445 1442 1440 1438 1436 1434 1432 1431 1429 1427 1425 1424
1489 1491 1492 1494 1495 1496 1496 1496 1496 1496 1495 1494 1494 1492 1490 1488 1486 1483 1481 1479 1477 1473 1470 1467 1463 1459 1455 1451 1448 1445 1442 1439 1437 1434 1432 1430 1428 1427 1425 1423 1421 1420 1418 1417
1493 1494 1495 1495 1496 1496 1496 1495 1495 1494 1493 1492 1490 1488 1486 1484 1481 1477 1475 1471 1470 1467 1462 1459 1455 1451 1447 1444 1440 1437 1435 1433 1430 1427 1425 1422 1420 1418 1416 1415 1413 1412 1410 1409
1495 1496 1496 1496 1496 1496 1495 1495 1494 1492 1491 1489 1486 1483 1480 1476 1474 1472 1467 1463 1461 1459 1455 1451 1448 1444 1440 1437 1434 1431 1428 1425 1423 1420 1418 1415 1413 1410 1408 1406 1404 1402 1401 1400
1497 1497 1497 1497 1496 1496 1495 1493 1491 1489 1487 1484 1482 1478 1474 1469 1465 1462 1459 1456 1452 1449 1445 1442 1440 1437 1433 1430 1427 1424 1422 1419 1416 1414 1411 1409 1406 1403 1401 1399 1396 1394 1392 1390
1497 1497 1497 1496 1495 1494 1492 1490 1488 1485 1482 1478 1475 1471 1467 1462 1458 1452 1447 1446 1442 1439 1435 1433 1431 1429 1426 1424 1421 1418 1414 1411 1409 1406 1404 1402 1399 1397 1394 1391 1389 1387 1384 1382
1497 1496 1495 1494 1492 1491 1487 1485 1482 1479 1476 1472 1469 1465 1460 1453 1447 1445 1440 1436 1433 1431 1426 1424 1423 1421 1420 1417 1414 1411 1408 1405 1401 1399 1396 1393 1391 1389 1387 1384 1382 1380 1378 1375
1495 1494 1493 1491 1488 1486 1484 1480 1477 1473 1469 1465 1461 1457 1453 1449 1446 1436 1432 1428 1425 1422 1419 1416 1415 1414 1413 1411 1408 1406 1403 1400 1396 1393 1390 1386 1383 1381 1378 1376 1375 1373 1371 1369
1492 1491 1490 1488 1486 1483 1480 1476 1472 1468 1463 1457 1453 1449 1444 1440 1436 1431 1426 1421 1417 1413 1411 1410 1409 1408 1406 1404 1403 1401 1398 1396 1393 1390 1387 1384 1380 1377 1373 1370 1368 1366 1364 1362
1490 1489 1488 1486 1483 1479 1476 1472 1467 1463 1459 1454 1446 1442 1437 1433 1428 1424 1420 1415 1411 1408 1407 1405 1404 1403 1401 1400 1398 1396 1394 1392 1389 1387 1384 1381 1378 1375 1372 1368 1366 1363 1361 1359